When you browse on this site, cookies collect data to enhance your experience and personalize the content and advertising you see.
Visit our Privacy Policy to learn more. By continuing to use the site, you agree to this use of cookies and data.

Hourly Weather Yanovo-Grushevskiy

Today, 13 July, Monday

Time Temperature Precipitation Wind Pressure Humidity
00:00 +27°C° 0 mm 6 mps 752 mmHg 56%
01:00 +27°C° 0.1 mm 5 mps 752 mmHg 59%
02:00 +26°C° 0.1 mm 4 mps 752 mmHg 62%
03:00 +25°C° 0.1 mm 4 mps 752 mmHg 66%
04:00 +25°C° 0.3 mm 4 mps 752 mmHg 66%
05:00 +25°C° 0.3 mm 3 mps 752 mmHg 67%
06:00 +25°C° 0.3 mm 3 mps 752 mmHg 67%
07:00 +27°C° 0.1 mm 3 mps 752 mmHg 61%
08:00 +29°C° 0.1 mm 3 mps 752 mmHg 55%
09:00 +31°C° 0.1 mm 2 mps 752 mmHg 49%
10:00 +31°C° 0 mm 2 mps 752 mmHg 47%
11:00 +32°C° 0 mm 2 mps 752 mmHg 46%
12:00 +32°C° 0 mm 2 mps 751 mmHg 44%
13:00 +33°C° 0 mm 3 mps 751 mmHg 45%
14:00 +32°C° 0 mm 5 mps 752 mmHg 45%
15:00 +30°C° 0 mm 6 mps 752 mmHg 46%
16:00 +30°C° 0 mm 5 mps 751 mmHg 44%
17:00 +30°C° 0 mm 4 mps 751 mmHg 43%
18:00 +30°C° 0 mm 3 mps 750 mmHg 42%
19:00 +29°C° 0 mm 3 mps 751 mmHg 44%
20:00 +29°C° 0 mm 3 mps 751 mmHg 47%
21:00 +28°C° 0 mm 3 mps 751 mmHg 50%
22:00 +27°C° 0 mm 3 mps 751 mmHg 53%
23:00 +27°C° 0 mm 2 mps 751 mmHg 55%

Tomorrow, 14 July, Tuesday

Time Temperature Precipitation Wind Pressure Humidity
00:00 +26°C° 0 mm 1 mps 750 mmHg 58%
01:00 +26°C° 0 mm 1 mps 751 mmHg 60%
02:00 +25°C° 0 mm 1 mps 751 mmHg 61%
03:00 +25°C° 0 mm 1 mps 751 mmHg 63%
04:00 +24°C° 0.7 mm 1 mps 751 mmHg 68%
05:00 +24°C° 0.7 mm 2 mps 751 mmHg 74%
06:00 +23°C° 0.7 mm 2 mps 751 mmHg 80%
07:00 +24°C° 0.2 mm 2 mps 752 mmHg 75%
08:00 +26°C° 0.2 mm 3 mps 752 mmHg 71%
09:00 +27°C° 0.2 mm 4 mps 752 mmHg 66%
10:00 +28°C° 0 mm 4 mps 752 mmHg 61%
11:00 +29°C° 0 mm 5 mps 753 mmHg 56%
12:00 +30°C° 0 mm 6 mps 753 mmHg 50%
13:00 +30°C° 0 mm 7 mps 753 mmHg 50%
14:00 +30°C° 0 mm 7 mps 753 mmHg 50%
15:00 +29°C° 0 mm 8 mps 753 mmHg 50%
16:00 +28°C° 0 mm 7 mps 753 mmHg 52%
17:00 +27°C° 0 mm 7 mps 754 mmHg 54%
18:00 +26°C° 0 mm 7 mps 754 mmHg 56%
19:00 +24°C° 0 mm 6 mps 755 mmHg 60%
20:00 +23°C° 0 mm 5 mps 755 mmHg 64%
21:00 +21°C° 0 mm 5 mps 756 mmHg 68%
22:00 +21°C° 0 mm 4 mps 756 mmHg 69%
23:00 +20°C° 0 mm 4 mps 756 mmHg 71%

Day after tomorrow, 15 July, Wednesday

Time Temperature Precipitation Wind Pressure Humidity
00:00 +20°C° 0 mm 4 mps 756 mmHg 72%
01:00 +19°C° 0 mm 4 mps 757 mmHg 73%
02:00 +18°C° 0 mm 4 mps 757 mmHg 74%
03:00 +18°C° 0 mm 4 mps 757 mmHg 76%
04:00 +18°C° 0 mm 4 mps 757 mmHg 76%
05:00 +18°C° 0 mm 4 mps 757 mmHg 76%
06:00 +18°C° 0 mm 4 mps 758 mmHg 76%
07:00 +19°C° 0 mm 5 mps 758 mmHg 71%
08:00 +20°C° 0 mm 5 mps 758 mmHg 66%
09:00 +22°C° 0 mm 5 mps 758 mmHg 61%
10:00 +23°C° 0 mm 5 mps 758 mmHg 57%
11:00 +24°C° 0 mm 6 mps 758 mmHg 54%
12:00 +26°C° 0 mm 6 mps 758 mmHg 50%
13:00 +26°C° 0 mm 6 mps 758 mmHg 49%
14:00 +27°C° 0 mm 6 mps 758 mmHg 49%
15:00 +27°C° 0 mm 6 mps 758 mmHg 48%
16:00 +27°C° 0 mm 5 mps 758 mmHg 48%
17:00 +27°C° 0 mm 4 mps 758 mmHg 49%
18:00 +27°C° 0 mm 4 mps 758 mmHg 49%
19:00 +25°C° 0 mm 3 mps 759 mmHg 53%
20:00 +24°C° 0 mm 3 mps 759 mmHg 57%
21:00 +23°C° 0 mm 2 mps 759 mmHg 61%
22:00 +21°C° 0 mm 2 mps 759 mmHg 62%
23:00 +21°C° 0 mm 2 mps 759 mmHg 63%

16 July, Thursday

Time Temperature Precipitation Wind Pressure Humidity
00:00 +20°C° 0 mm 2 mps 759 mmHg 65%
01:00 +20°C° 0 mm 2 mps 759 mmHg 65%
02:00 +19°C° 0 mm 2 mps 759 mmHg 66%
03:00 +18°C° 0 mm 2 mps 759 mmHg 67%
04:00 +19°C° 0 mm 2 mps 759 mmHg 66%
05:00 +20°C° 0 mm 1 mps 759 mmHg 66%
06:00 +20°C° 0 mm 1 mps 759 mmHg 65%
07:00 +22°C° 0 mm 1 mps 759 mmHg 58%
08:00 +24°C° 0 mm 1 mps 759 mmHg 52%
09:00 +26°C° 0 mm 1 mps 759 mmHg 45%
10:00 +26°C° 0 mm 1 mps 759 mmHg 43%
11:00 +27°C° 0 mm 2 mps 759 mmHg 40%
12:00 +28°C° 0 mm 2 mps 759 mmHg 38%
13:00 +28°C° 0 mm 2 mps 759 mmHg 38%
14:00 +28°C° 0 mm 2 mps 758 mmHg 37%
15:00 +29°C° 0 mm 3 mps 758 mmHg 37%
16:00 +29°C° 0 mm 2 mps 758 mmHg 37%
17:00 +28°C° 0 mm 2 mps 758 mmHg 36%
18:00 +28°C° 0 mm 2 mps 757 mmHg 36%
19:00 +27°C° 0 mm 2 mps 758 mmHg 40%
20:00 +25°C° 0 mm 2 mps 758 mmHg 44%
21:00 +23°C° 0 mm 2 mps 758 mmHg 48%
22:00 +23°C° 0 mm 2 mps 758 mmHg 49%
23:00 +21°C° 0 mm 2 mps 758 mmHg 50%

17 July, Friday

Time Temperature Precipitation Wind Pressure Humidity
00:00 +20°C° 0 mm 3 mps 758 mmHg 51%
01:00 +20°C° 0 mm 3 mps 758 mmHg 53%
02:00 +19°C° 0 mm 3 mps 757 mmHg 54%
03:00 +19°C° 0 mm 3 mps 757 mmHg 56%
04:00 +19°C° 0 mm 2 mps 758 mmHg 57%
05:00 +19°C° 0 mm 2 mps 758 mmHg 58%
06:00 +19°C° 0 mm 2 mps 758 mmHg 59%
07:00 +21°C° 0 mm 3 mps 758 mmHg 54%
08:00 +24°C° 0 mm 3 mps 758 mmHg 49%
09:00 +26°C° 0 mm 3 mps 758 mmHg 44%
10:00 +27°C° 0 mm 2 mps 758 mmHg 40%
11:00 +28°C° 0 mm 2 mps 758 mmHg 37%
12:00 +29°C° 0 mm 1 mps 758 mmHg 34%
13:00 +30°C° 0 mm 1 mps 758 mmHg 32%
14:00 +31°C° 0 mm 1 mps 757 mmHg 31%
15:00 +31°C° 0 mm 1 mps 757 mmHg 29%
16:00 +31°C° 0 mm 2 mps 757 mmHg 30%
17:00 +30°C° 0 mm 2 mps 757 mmHg 30%
18:00 +30°C° 0 mm 2 mps 757 mmHg 31%
19:00 +28°C° 0 mm 3 mps 757 mmHg 36%
20:00 +26°C° 0 mm 3 mps 757 mmHg 40%
21:00 +24°C° 0 mm 3 mps 758 mmHg 45%
22:00 +24°C° 0 mm 3 mps 758 mmHg 47%
23:00 +22°C° 0 mm 3 mps 758 mmHg 49%

18 July, Saturday

Time Temperature Precipitation Wind Pressure Humidity
00:00 +21°C° 0 mm 3 mps 758 mmHg 51%
01:00 +20°C° 0 mm 3 mps 758 mmHg 54%
02:00 +20°C° 0 mm 3 mps 758 mmHg 56%
03:00 +19°C° 0 mm 3 mps 758 mmHg 58%
04:00 +20°C° 0 mm 3 mps 758 mmHg 60%
05:00 +20°C° 0 mm 2 mps 758 mmHg 61%
06:00 +20°C° 0 mm 2 mps 759 mmHg 62%
07:00 +23°C° 0 mm 2 mps 759 mmHg 56%
08:00 +25°C° 0 mm 3 mps 759 mmHg 50%
09:00 +27°C° 0 mm 3 mps 759 mmHg 44%
10:00 +28°C° 0 mm 3 mps 759 mmHg 40%
11:00 +29°C° 0 mm 2 mps 759 mmHg 36%
12:00 +30°C° 0 mm 2 mps 758 mmHg 33%
13:00 +31°C° 0 mm 2 mps 758 mmHg 31%
14:00 +31°C° 0 mm 2 mps 758 mmHg 29%
15:00 +32°C° 0 mm 2 mps 758 mmHg 27%
16:00 +32°C° 0 mm 2 mps 758 mmHg 28%
17:00 +31°C° 0 mm 3 mps 757 mmHg 29%
18:00 +31°C° 0 mm 3 mps 757 mmHg 31%
19:00 +29°C° 0 mm 3 mps 758 mmHg 35%
20:00 +27°C° 0 mm 2 mps 758 mmHg 39%
21:00 +26°C° 0 mm 2 mps 758 mmHg 43%
22:00 +25°C° 0 mm 3 mps 758 mmHg 46%
23:00 +24°C° 0 mm 3 mps 758 mmHg 48%
Show more